Location: Street
(51.1247°N, 2.7429°W)
Time: 11:14:05
(UTC+01:00)

NANOSAT C BR1 - Pass Details

Date: 09 April 2023
Orbit: 573 x 587 km, 98.0° (Epoch: 29 May)

Event Time Altitude Azimuth Distance (km) Brightness Sun altitude
Rises 04:49:56 0° 7° (N) 2,806 ? -15.2°
Reaches altitude 10° 04:52:13 10° 359° (N) 1,899 ? -14.9°
Maximum altitude 04:55:57 35° 294° (WNW) 951 ? -14.4°
Enters shadow 04:57:42 24° 248° (WSW) 1,220 ? -14.2°
